Location: ???????
(55.4362°N, 38.1183°E)
Time: 01:38:02
(UTC+00:00)

METEOR M2 - Pass Details

Date: 03 December 2021
Orbit: 818 x 827 km, 98.4° (Epoch: 28 January)

Event Time Altitude Azimuth Distance (km) Brightness Sun altitude
Rises 16:19:26 0° 182° (S) 3,357 ? -26.8°
Reaches altitude 10° 16:21:53 10° 188° (S) 2,427 ? -27.2°
Maximum altitude 16:27:03 47° 261° (W) 1,093 ? -27.9°
Drops below altitude 10° 16:32:15 10° 335° (NNW) 2,439 ? -28.6°
Sets 16:34:43 0° 342° (NNW) 3,376 ? -29.0°
